Location: Fort Wayne
(41.1310°N, 85.1290°W)
Time: 23:25:07
(UTC-05:00)

Cosmos 2056 Rocket - Visible Passes

Search period start: 04 December 2016 00:00
Search period end: 14 December 2016 00:00
Orbit: 743 x 801 km, 74.0° (Epoch: 04 December)

Date Brightness Start Highest point End Pass type
(mag) Time Alt. Az. Time Alt. Az. Time Alt. Az.
04 Dec 5.9 04:56:40 11° NNE 04:59:56 18° NE 05:03:24 10° E visible
04 Dec 3.5 06:37:25 10° NNW 06:42:30 59° WSW 06:47:29 10° S visible
04 Dec 5.1 19:33:03 10° S 19:35:01 22° SSE 19:35:01 22° SSE visible
05 Dec 6.3 04:22:05 10° NE 04:23:35 11° NE 04:25:11 10° ENE visible
05 Dec 3.5 06:02:29 16° NNW 06:06:37 82° ENE 06:11:43 10° SSE visible
05 Dec 4.8 18:57:56 10° SSE 19:00:49 23° SE 19:00:49 23° SE visible
05 Dec 5.8 20:39:23 10° SW 20:41:14 20° WSW 20:41:14 20° WSW visible
06 Dec 4.3 05:27:59 26° N 05:30:37 49° ENE 05:35:33 10° SE visible
06 Dec 4.8 07:08:46 10° NW 07:12:19 19° W 07:15:50 10° SW visible
06 Dec 5.1 18:23:30 10° SE 18:26:35 16° E 18:26:35 16° E visible
06 Dec 4.4 20:03:00 10° SSW 20:06:59 46° WSW 20:06:59 46° WSW visible
07 Dec 5.1 04:53:34 28° NE 04:54:32 30° ENE 04:59:00 10° ESE visible
07 Dec 4.2 06:33:57 20° NW 06:36:37 32° W 06:41:06 10° SSW visible
07 Dec 3.4 19:27:00 10° SSW 19:32:22 82° ESE 19:32:41 77° ENE visible
07 Dec 6.4 21:12:18 10° W 21:13:04 12° W 21:13:04 12° W visible
08 Dec 5.9 04:19:12 18° ENE 04:19:12 18° ENE 04:21:56 10° ESE visible
08 Dec 3.5 05:59:37 44° WNW 06:00:50 55° WSW 06:05:48 10° S visible
08 Dec 3.7 18:51:23 10° S 18:56:31 49° ESE 18:58:18 35° NE visible
08 Dec 5.6 20:34:45 10° WSW 20:38:42 22° WNW 20:38:42 22° WNW visible
09 Dec 3.4 05:25:19 78° SSE 05:25:19 78° SSE 05:30:04 10° SSE visible
09 Dec 4.4 18:16:12 10° SSE 18:20:46 29° E 18:23:51 17° NE visible
09 Dec 4.9 19:57:52 10° SW 20:02:45 35° WNW 20:04:14 30° NNW visible
10 Dec 5.0 04:51:05 32° SE 04:51:05 32° SE 04:53:57 10° SE visible
10 Dec 5.0 06:31:30 17° WSW 06:31:30 17° WSW 06:33:58 10° SW visible
10 Dec 5.0 17:41:39 10° SE 17:45:04 17° E 17:48:29 10° NE visible
10 Dec 4.1 19:21:26 10° SSW 19:26:42 57° WNW 19:29:42 25° N visible
11 Dec 6.2 04:16:53 13° ESE 04:16:53 13° ESE 04:17:26 10° SE visible
11 Dec 5.0 05:57:18 21° SW 05:57:18 21° SW 05:59:21 10° SSW visible
11 Dec 3.5 18:45:23 10° SSW 18:50:45 87° ESE 18:55:04 16° NNE visible
11 Dec 6.2 20:31:00 10° W 20:33:37 14° NW 20:35:27 12° NNW visible
12 Dec 5.5 05:23:06 16° S 05:23:06 16° S 05:24:06 10° S visible
12 Dec 3.7 18:09:43 10° S 18:14:53 52° ESE 18:20:01 10° NNE visible
12 Dec 5.7 19:53:19 10° WSW 19:57:20 21° WNW 20:00:44 12° NNW visible
13 Dec 4.4 17:34:28 10° SSE 17:39:06 31° E 17:43:43 10° NE visible
13 Dec 5.1 19:16:22 10° SW 19:21:09 33° WNW 19:25:55 10° N visible
